Weather Roundup
Issued by NWS

Home | Current Version | Previous Version | Text Only | Print | Product List | Glossary On
Versions: 1 2 3 4 5 6 7 8 9 10 11 12 13 14 15 16 17 18 19 20 21 22 23 24 25 26 27 28 29 30 31 32 33 34 35 36 37 38 39 40 41 42 43 44 45 46 47 48 49 50
000
NZUS93 KARX 221459
HRRWXR

CURRENT HOURLY OBSERVATIONS ACROSS
MUCH OF THE UPPER MISSISSIPPI VALLEY
NATIONAL WEATHER SERVICE LA CROSSE WI
1000 AM CDT TUE APR 22 2014


...SOUTHEAST MINNESOTA...


CITY           SKY/WX    TMP DP  RH WIND       PRES   REMARKS
ROCHESTER      SUNNY     46  30  53 N17       30.11R
ROCHESTER/MAYO FAIR      44  24  47 N10G23    30.11S
WINONA         SUNNY     48  32  53 NW12      30.09S
AUSTIN         SUNNY     46  30  53 N10G20    30.12S
ALBERT LEA     SUNNY     46  34  61 NW10      30.13S
DODGE CENTER   SUNNY     46  30  53 NW14      30.12R
PRESTON        SUNNY     46  30  54 N14G20    30.09F
OWATONNA       SUNNY     46  30  53 N14       30.14S
FARIBAULT      SUNNY     48  28  46 NW12      30.14S
$$

...ELSEWHERE IN MINNESOTA...


CITY           SKY/WX    TMP DP  RH WIND       PRES   REMARKS
MINNEAPOLIS    MOSUNNY   46  28  49 NW15G22   30.14S
INTNL FALLS    SUNNY     41  26  55 N7        30.13S
DULUTH         MOSUNNY   40  25  55 NW14      30.08S WCI  32
RED WING       SUNNY     46  25  42 N12       30.11S
REDWOOD FALLS    N/A     50  33  52 MISG      30.15F
MANKATO        SUNNY     46  32  57 N12       30.16S
WORTHINGTON    SUNNY     52  28  40 N6        30.18R
FAIRMONT       SUNNY     50  30  46 N12       30.17S
$$

...SOUTHWEST WISCONSIN...


CITY           SKY/WX    TMP DP  RH WIND       PRES   REMARKS
LA CROSSE      SUNNY     48  28  46 N13       30.08R
PRAIRIE DU CHI SUNNY     47  28  47 NW10      30.07S
BOSCOBEL       SUNNY     49  26  41 NW10      30.07R
LONE ROCK      NOT AVBL
PLATTEVILLE    SUNNY     47  28  48 N13G20    30.05S
FORT MC COY    SUNNY     45  26  48 NW13      30.07R
VIROQUA        FAIR      43  29  56 NW14      30.05S
WIS DELLS      SUNNY     44  28  53 NW12      30.01F
$$

...ELSEWHERE IN WISCONSIN...


CITY           SKY/WX    TMP DP  RH WIND       PRES   REMARKS
MILWAUKEE      MOSUNNY   47  28  47 NW16      29.97S
MADISON        SUNNY     47  28  47 NW15G23   30.00F
GREEN BAY      SUNNY     45  31  58 NW18G25   29.97R
EAU CLAIRE     NOT AVBL
BLACK RVR FLS  FAIR      44  26  48 N9G18     30.06S
MEDFORD        MOSUNNY   38  26  59 N14       30.02S WCI  30
WAUSAU         CLOUDY    40  25  55 NW16G24   29.99S WCI  31
WIS RAPIDS     PTSUNNY   43  27  53 NW15G24   30.03S
MARSHFIELD     PTSUNNY   43  29  57 N15G25    30.02S
RICE LAKE      SUNNY     40  26  56 NW10      30.10R WCI  34
$$

...NORTHEAST IOWA...


CITY           SKY/WX    TMP DP  RH WIND       PRES   REMARKS
WATERLOO       SUNNY     50  33  52 N13       30.11S
DUBUQUE        SUNNY     47  29  49 N15       30.05S
DECORAH        SUNNY     45  30  57 N17G24    30.08S
MASON CITY     SUNNY     50  35  56 N16       30.14S
CHARLES CITY   SUNNY     45  34  65 N15       30.13R
OELWEIN        SUNNY    N/A N/A N/A N14       30.11R
$$

...ELSEWHERE IN IOWA...


CITY           SKY/WX    TMP DP  RH WIND       PRES   REMARKS
DES MOINES     MOSUNNY   55  31  39 N12       30.15R
IOWA CITY      SUNNY     50  32  50 NW15G23   30.11S
FORT DODGE     SUNNY     52  36  54 NE10      30.16S
MARSHALLTOWN   SUNNY     51  32  48 N15G23    30.13R
CEDAR RAPIDS   SUNNY     49  33  54 N20       30.09S
$$

...NORTHERN ILLINOIS...


CITY           SKY/WX    TMP DP  RH WIND       PRES   REMARKS
CHICAGO-OHARE  MOSUNNY   49  28  44 N16       29.98R
DUPAGE         SUNNY     49  31  49 N14G24    29.98R
CHICAGO-MIDWAY SUNNY     49  31  49 N12       29.97R
MOLINE         SUNNY     51  33  50 N12       30.06R
ROCKFORD       SUNNY     48  31  51 N13G22    30.02S
STERLING       SUNNY     52  36  54 N21       30.03S
PEORIA         SUNNY     53  34  48 N13G20    30.02S
$$

NOTE: "FAIR" INDICATES FEW OR NO CLOUDS BELOW 12,000 FEET WITH NO
SIGNIFICANT WEATHER AND/OR OBSTRUCTIONS TO VISIBILITY. WIND
SPEEDS ARE IN MILES-PER-HOUR.



USA.gov is the U.S. government's official web portal to all federal, state and local government web resources and services.